TimeCDT,TemperatureF,Dew PointF,Humidity,Sea Level PressureIn,VisibilityMPH,Wind Direction,Wind SpeedMPH,Gust SpeedMPH,PrecipitationIn,Events,Conditions,WindDirDegrees,DateUTC
12:15 AM,68.0,68.0,100,29.81,1.5,SE,12.7,-,0.00,,Overcast,130,2013-09-09 05:15:00
12:35 AM,68.0,68.0,100,29.81,1.0,ESE,10.4,19.6,0.00,,Overcast,120,2013-09-09 05:35:00
12:55 AM,68.0,68.0,100,29.80,0.5,ESE,11.5,16.1,0.00,,Overcast,120,2013-09-09 05:55:00
1:15 AM,68.0,68.0,100,29.79,0.5,ESE,11.5,-,0.00,,Overcast,120,2013-09-09 06:15:00
1:35 AM,68.0,68.0,100,29.78,0.8,ESE,9.2,-,0.00,,Overcast,110,2013-09-09 06:35:00
1:55 AM,68.0,68.0,100,29.75,0.8,ESE,11.5,-,0.00,,Overcast,110,2013-09-09 06:55:00
2:15 AM,68.0,68.0,100,29.73,1.0,East,10.4,-,0.00,,Overcast,100,2013-09-09 07:15:00
2:35 AM,68.0,68.0,100,29.75,1.5,ESE,13.8,-,0.00,,Overcast,120,2013-09-09 07:35:00
2:55 AM,68.0,68.0,100,29.73,1.2,ENE,5.8,-,0.03,,Overcast,70,2013-09-09 07:55:00
3:15 AM,68.0,68.0,100,29.74,1.8,East,6.9,-,0.01,,Overcast,80,2013-09-09 08:15:00
3:35 AM,68.0,68.0,100,29.73,2.5,ESE,6.9,-,0.01,,Overcast,110,2013-09-09 08:35:00
3:55 AM,68.0,68.0,100,29.89,3.0,West,33.4,48.3,0.02,,Overcast,280,2013-09-09 08:55:00
4:15 AM,62.6,62.6,100,29.80,1.5,SW,13.8,27.6,0.23,,Overcast,230,2013-09-09 09:15:00
4:35 AM,64.4,64.4,100,29.76,2.5,SSE,13.8,-,0.46,,Overcast,150,2013-09-09 09:35:00
4:55 AM,66.2,66.2,100,29.72,10.0,South,13.8,17.3,0.61,,Mostly Cloudy,170,2013-09-09 09:55:00
5:15 AM,66.2,66.2,100,29.71,5.0,SE,9.2,-,0.00,,Mostly Cloudy,140,2013-09-09 10:15:00
5:35 AM,66.2,66.2,100,29.69,7.0,East,5.8,-,0.02,,Overcast,80,2013-09-09 10:35:00
5:55 AM,66.2,66.2,100,29.68,6.0,Calm,Calm,-,0.02,,Mostly Cloudy,0,2013-09-09 10:55:00
6:15 AM,66.2,66.2,100,29.69,10.0,SSE,8.1,-,0.00,,Partly Cloudy,150,2013-09-09 11:15:00
6:35 AM,66.2,66.2,100,29.69,10.0,SSE,11.5,-,0.00,,Clear,150,2013-09-09 11:35:00
6:55 AM,66.2,66.2,100,29.65,8.0,ESE,11.5,-,0.00,,Clear,110,2013-09-09 11:55:00
7:15 AM,64.4,64.4,100,29.66,10.0,SE,11.5,-,0.00,,Clear,130,2013-09-09 12:15:00
7:35 AM,66.2,66.2,100,29.65,9.0,SE,13.8,-,0.00,,Clear,140,2013-09-09 12:35:00
7:55 AM,66.2,66.2,100,29.66,6.0,SSE,13.8,-,0.00,,Clear,160,2013-09-09 12:55:00
8:15 AM,66.2,66.2,100,29.68,7.0,South,11.5,-,0.00,,Partly Cloudy,170,2013-09-09 13:15:00
8:35 AM,66.2,66.2,100,29.67,8.0,SSE,9.2,-,0.00,,Partly Cloudy,160,2013-09-09 13:35:00
8:55 AM,68.0,68.0,100,29.68,9.0,SSE,5.8,-,0.00,,Scattered Clouds,160,2013-09-09 13:55:00
9:15 AM,68.0,68.0,100,29.68,10.0,SSE,5.8,-,0.00,,Overcast,160,2013-09-09 14:15:00
9:35 AM,69.8,69.8,100,29.69,10.0,South,4.6,-,0.00,,Overcast,180,2013-09-09 14:35:00
9:55 AM,69.8,69.8,100,29.68,9.0,South,4.6,-,0.00,,Overcast,170,2013-09-09 14:55:00
10:15 AM,69.8,69.8,100,29.68,6.0,SSE,5.8,-,0.00,,Overcast,150,2013-09-09 15:15:00
10:35 AM,71.6,71.6,100,29.68,6.0,South,3.5,-,0.00,,Overcast,180,2013-09-09 15:35:00
10:55 AM,71.6,71.6,100,29.67,5.0,South,6.9,-,0.00,,Overcast,190,2013-09-09 15:55:00
11:15 AM,73.4,73.4,100,29.67,5.0,South,6.9,-,0.00,,Overcast,190,2013-09-09 16:15:00
11:35 AM,73.4,73.4,100,29.67,4.0,SW,6.9,-,0.00,,Overcast,230,2013-09-09 16:35:00
11:55 AM,73.4,73.4,100,29.67,5.0,WSW,9.2,-,0.00,,Scattered Clouds,240,2013-09-09 16:55:00
12:15 PM,77.0,73.4,89,29.67,7.0,SW,8.1,-,0.00,,Scattered Clouds,220,2013-09-09 17:15:00
12:35 PM,77.0,71.6,83,29.66,9.0,WSW,10.4,-,0.00,,Mostly Cloudy,240,2013-09-09 17:35:00
12:55 PM,78.8,71.6,78,29.66,8.0,WSW,12.7,-,0.00,,Mostly Cloudy,240,2013-09-09 17:55:00
1:15 PM,78.8,71.6,78,29.67,9.0,West,12.7,16.1,0.00,,Mostly Cloudy,270,2013-09-09 18:15:00
1:35 PM,78.8,71.6,78,29.67,10.0,West,11.5,19.6,0.00,,Mostly Cloudy,270,2013-09-09 18:35:00
1:55 PM,78.8,71.6,78,29.68,10.0,West,13.8,-,0.00,,Overcast,260,2013-09-09 18:55:00
2:15 PM,77.0,71.6,83,29.68,10.0,West,12.7,17.3,0.00,,Overcast,260,2013-09-09 19:15:00
2:35 PM,75.2,69.8,83,29.68,10.0,West,16.1,21.9,0.00,,Overcast,270,2013-09-09 19:35:00
2:55 PM,75.2,69.8,83,29.69,10.0,WNW,13.8,21.9,0.00,,Overcast,290,2013-09-09 19:55:00
3:15 PM,75.2,69.8,83,29.69,10.0,WNW,17.3,21.9,0.00,,Overcast,300,2013-09-09 20:15:00
3:35 PM,73.4,68.0,83,29.70,10.0,WNW,12.7,-,0.00,,Overcast,290,2013-09-09 20:35:00
3:55 PM,73.4,68.0,83,29.71,10.0,WNW,15.0,23.0,0.00,,Overcast,290,2013-09-09 20:55:00
4:15 PM,73.4,68.0,83,29.71,10.0,WNW,11.5,-,0.00,,Overcast,300,2013-09-09 21:15:00
4:35 PM,73.4,68.0,83,29.72,10.0,WNW,12.7,18.4,0.00,,Mostly Cloudy,300,2013-09-09 21:35:00
4:55 PM,75.2,68.0,78,29.73,10.0,NW,17.3,-,0.00,,Mostly Cloudy,320,2013-09-09 21:55:00
5:15 PM,75.2,66.2,73,29.73,10.0,NW,16.1,19.6,0.00,,Overcast,310,2013-09-09 22:15:00
5:35 PM,73.4,66.2,78,29.74,10.0,NW,12.7,18.4,0.00,,Scattered Clouds,320,2013-09-09 22:35:00
5:55 PM,73.4,68.0,83,29.74,10.0,NW,8.1,-,0.00,,Scattered Clouds,320,2013-09-09 22:55:00
6:15 PM,73.4,68.0,83,29.75,10.0,NNW,13.8,-,0.00,,Mostly Cloudy,340,2013-09-09 23:15:00
6:35 PM,73.4,66.2,78,29.76,10.0,NW,11.5,16.1,0.00,,Mostly Cloudy,320,2013-09-09 23:35:00
6:55 PM,73.4,66.2,78,29.77,10.0,NW,11.5,-,0.00,,Mostly Cloudy,320,2013-09-09 23:55:00
7:15 PM,71.6,66.2,83,29.78,10.0,NW,9.2,-,0.00,,Mostly Cloudy,310,2013-09-10 00:15:00
7:35 PM,71.6,66.2,83,29.78,10.0,WNW,8.1,-,0.00,,Mostly Cloudy,300,2013-09-10 00:35:00
7:55 PM,71.6,66.2,83,29.79,10.0,NW,5.8,-,0.00,,Scattered Clouds,320,2013-09-10 00:55:00
8:15 PM,71.6,66.2,83,29.80,10.0,NW,9.2,-,0.00,,Scattered Clouds,310,2013-09-10 01:15:00
8:35 PM,69.8,66.2,88,29.81,10.0,NW,8.1,-,0.00,,Partly Cloudy,310,2013-09-10 01:35:00
8:55 PM,69.8,66.2,88,29.81,10.0,NW,5.8,-,0.00,,Clear,310,2013-09-10 01:55:00
9:15 PM,69.8,66.2,88,29.82,10.0,NW,6.9,-,0.00,,Clear,310,2013-09-10 02:15:00
9:35 PM,68.0,66.2,94,29.83,10.0,WNW,6.9,-,0.00,,Clear,290,2013-09-10 02:35:00
9:55 PM,66.2,66.2,100,29.83,10.0,WNW,4.6,-,0.00,,Clear,290,2013-09-10 02:55:00
10:15 PM,64.4,64.4,100,29.84,10.0,West,4.6,-,0.00,,Clear,280,2013-09-10 03:15:00
10:35 PM,64.4,64.4,100,29.83,10.0,NNW,4.6,-,0.00,,Clear,330,2013-09-10 03:35:00
10:55 PM,64.4,64.4,100,29.83,10.0,Calm,Calm,-,0.00,,Clear,0,2013-09-10 03:55:00
11:15 PM,62.6,62.6,100,29.82,9.0,Calm,Calm,-,0.00,,Clear,0,2013-09-10 04:15:00
11:35 PM,62.6,62.6,100,29.83,0.5,Calm,Calm,-,0.00,,Unknown,0,2013-09-10 04:35:00
11:55 PM,62.6,62.6,100,29.82,7.0,Calm,Calm,-,0.00,,Clear,0,2013-09-10 04:55:00